User: anonymous   Login
Location: PACMO
(41.3967°N, 90.3760°W)
Time: 10:17:04
(UTC-06:00)
Language:

BREEZE-M DEB (TANK) - Orbit

View from above orbital plane
View from above orbital plane
View from above satellite
View from above satellite

Ground track
Ground track

The orbit data is extracted from the following two-line orbital elements,

1 31863U 07032B   15024.15027608  .00001403  00000-0  76951-3 0  3560
2 31863 045.9796 025.8780 5001169 305.0467 017.6231 05.51158007151223
Epoch (UTC): 24 January 2015 03:36:23
Eccentricity: 0.5001169
inclination: 45.9796°
perigee height: 389 km
apogee height: 13930 km
right ascension of ascending node: 25.8780°
argument of perigee: 305.0467°
revolutions per day: 5.51158007
mean anomaly at epoch: 17.6231°
orbit number at epoch: 15122

The dashed part of the orbit path shows where the satellite is in the earth's shadow,  

DLR